Taunton, MA

5:26 AM EDT on August 22, 2017 (GMT -0400)
Taunton Municipal

Weather History for KTAN - May, 2013

Change the Weather History Date:

Saturday, May 4, 2013

  Actual Average Record
Temperature  
Mean Temperature 45 °F -  
Max Temperature 59 °F 63 °F 91 °F (2001)
Min Temperature 33 °F 41 °F 29 °F (1977)
Degree Days  
Heating Degree Days 20    
Moisture  
Dew Point 34 °F    
Average Humidity 80    
Maximum Humidity 96    
Minimum Humidity 42    
Precipitation  
Precipitation 0.00 in - - ()
Sea Level Pressure  
Sea Level Pressure 30.33 in    
Wind  
Wind Speed 1 mph (ENE)    
Max Wind Speed 10 mph    
Max Gust Speed 21 mph    
Visibility 4 miles    
Events Fog    
Averages and records for this station are not official NWS values.
T = Trace of Precipitation, MM = Missing Value Source: NWS Daily Summary

Daily Weather History Graph

Daily Weather History Graph

Search for Another Location

Airport or City:

Trip Planner

Search our weather history database for the weather conditions in past years. The results will help you decide how hot, cold, wet, or windy it might be!

Date:

Astronomy

May. 04, 2013 Rise Set
Actual Time 5:36 AM EDT 7:46 PM EDT
Civil Twilight 5:05 AM EDT 8:16 PM EDT
Nautical Twilight 4:27 AM EDT 8:54 PM EDT
Astronomical Twilight 3:46 AM EDT 9:36 PM EDT
Moon 2:37 AM EDT (5/4) 2:36 PM EDT (5/4)
Length of Visible Light 15h 11m
Length of Day
14h 09m
Waning Crescent, 27% of the Moon is Illuminated
May 4
Waning Crescent
May 9
New
May 18
First Quarter
May 25
Full
May 31
Last Quarter

Hourly Weather History & Observations

Time (EDT) Temp. Windchill Dew Point Humidity Pressure Visibility Wind Dir Wind Speed Gust Speed Precip Events Conditions
12:03 AM 37.9 °F - 35.1 °F 89% 30.37 in 1.0 mi Calm Calm - N/A   Mist
12:15 AM 37.0 °F - 35.1 °F 93% 30.36 in 0.5 mi Calm Calm - N/A Fog Fog
12:44 AM 37.0 °F - 34.0 °F 89% 30.35 in 0.5 mi Calm Calm - N/A Fog Fog
12:52 AM 37.0 °F - 34.0 °F 89% 30.35 in 0.2 mi Calm Calm - N/A Fog Fog
1:49 AM 35.6 °F - 33.8 °F 93% 30.34 in 1.2 mi Calm Calm - N/A   Scattered Clouds
1:52 AM 36.0 °F - 33.1 °F 89% 30.35 in 1.0 mi Calm Calm - N/A   Mist
2:03 AM 35.1 °F - 33.1 °F 92% 30.34 in 0.5 mi Calm Calm - N/A Fog Fog
2:14 AM 35.1 °F - 33.1 °F 92% 30.34 in 0.5 mi Calm Calm - N/A Fog Fog
2:25 AM 35.1 °F - 32.0 °F 89% 30.34 in 0.2 mi Calm Calm - N/A Fog Fog
2:52 AM 35.1 °F - 32.0 °F 89% 30.34 in 0.2 mi Calm Calm - N/A Fog Fog
3:52 AM 34.0 °F - 32.0 °F 92% 30.33 in 0.5 mi Calm Calm - N/A Fog Fog
4:39 AM 34.0 °F - 30.9 °F 89% 30.33 in 1.5 mi Calm Calm - N/A   Mostly Cloudy
4:42 AM 34.0 °F - 30.9 °F 89% 30.33 in 0.8 mi Calm Calm - N/A   Mist
4:52 AM 34.0 °F - 30.9 °F 89% 30.33 in 0.2 mi Calm Calm - N/A Fog Fog
5:01 AM 33.1 °F - 30.9 °F 92% 30.33 in 2.0 mi Calm Calm - N/A   Mostly Cloudy
5:22 AM 33.1 °F - 30.0 °F 89% 30.33 in 1.2 mi Calm Calm - N/A   Mostly Cloudy
5:30 AM 33.1 °F - 30.9 °F 92% 30.33 in 0.2 mi Calm Calm - N/A Fog Fog
5:52 AM 33.1 °F - 30.0 °F 89% 30.34 in 0.2 mi Calm Calm - N/A Fog Fog
6:28 AM 36.0 °F - 34.0 °F 93% 30.34 in 1.0 mi Calm Calm - N/A   Clear
6:37 AM 37.0 °F - 36.0 °F 96% 30.34 in 0.8 mi Calm Calm - N/A   Clear
6:43 AM 37.9 °F - 36.0 °F 93% 30.34 in 2.0 mi Calm Calm - N/A   Clear
6:50 AM 39.2 °F - 37.4 °F 93% 30.34 in 4.0 mi Calm Calm - N/A   Clear
6:52 AM 39.0 °F - 37.0 °F 93% 30.35 in 4.0 mi Calm Calm - N/A   Clear
7:52 AM 46.0 °F 44.8 °F 43.0 °F 89% 30.34 in 10.0 mi Variable 3.5 mph - N/A   Clear
8:52 AM 53.1 °F - 41.0 °F 64% 30.34 in 10.0 mi NNE 9.2 mph - N/A   Clear
9:52 AM 55.9 °F - 39.0 °F 53% 30.34 in 10.0 mi NNE 10.4 mph 17.3 mph N/A   Clear
10:52 AM 57.0 °F - 37.0 °F 47% 30.34 in 10.0 mi East 10.4 mph 17.3 mph N/A   Clear
11:52 AM 57.0 °F - 37.0 °F 47% 30.34 in 10.0 mi ENE 8.1 mph 20.7 mph N/A   Clear
12:52 PM 57.9 °F - 36.0 °F 44% 30.34 in 10.0 mi ENE 10.4 mph 17.3 mph N/A   Clear
1:52 PM 57.9 °F - 35.1 °F 42% 30.34 in 10.0 mi ENE 8.1 mph - N/A   Clear
2:52 PM 57.0 °F - 34.0 °F 42% 30.32 in 10.0 mi East 9.2 mph 18.4 mph N/A   Clear
3:52 PM 57.0 °F - 35.1 °F 44% 30.31 in 10.0 mi Variable 6.9 mph - N/A   Clear
4:52 PM 55.0 °F - 35.1 °F 47% 30.31 in 10.0 mi East 8.1 mph - N/A   Clear
5:52 PM 51.1 °F - 35.1 °F 54% 30.31 in 10.0 mi East 9.2 mph - N/A   Clear
6:52 PM 48.9 °F - 35.1 °F 59% 30.31 in 10.0 mi Variable 4.6 mph - N/A   Clear
7:52 PM 46.0 °F 43.9 °F 36.0 °F 68% 30.32 in 10.0 mi Variable 4.6 mph - N/A   Clear
8:52 PM 44.1 °F - 36.0 °F 73% 30.33 in 10.0 mi Calm Calm - N/A   Clear
9:52 PM 37.9 °F - 34.0 °F 86% 30.33 in 8.0 mi Calm Calm - N/A   Clear
10:33 PM 36.0 °F - 33.1 °F 89% 30.33 in 1.5 mi Calm Calm - N/A   Clear
10:37 PM 35.1 °F - 33.1 °F 92% 30.33 in 0.8 mi Calm Calm - N/A   Clear
10:42 PM 35.1 °F - 33.1 °F 92% 30.33 in 0.5 mi Calm Calm - N/A Fog Fog
10:52 PM 35.1 °F - 32.0 °F 89% 30.33 in 2.0 mi Calm Calm - N/A   Partly Cloudy
11:04 PM 35.1 °F - 32.0 °F 89% 30.32 in 1.2 mi Calm Calm - N/A   Scattered Clouds
11:06 PM 35.1 °F - 32.0 °F 89% 30.32 in 0.8 mi Calm Calm - N/A   Mist
11:21 PM 34.0 °F - 32.0 °F 92% 30.32 in 1.2 mi Calm Calm - N/A   Scattered Clouds
11:25 PM 34.0 °F - 30.9 °F 89% 30.32 in 0.8 mi Calm Calm - N/A   Mist
11:46 PM 33.8 °F - 30.2 °F 87% 30.32 in 0.2 mi Calm Calm - N/A Fog Fog
11:52 PM 34.0 °F - 32.0 °F 92% 30.32 in 0.2 mi Calm Calm - N/A Fog Fog